Location: Poughquag
(41.6090°N, 73.6820°W)
Time: 04:44:19
(UTC-04:00)

ACS3 Solar Sail - Pass Details

Date: 20 June 2024
Orbit: 993 x 1022 km, 97.4° (Epoch: 23 July)

Event Time Altitude Azimuth Distance (km) Brightness Sun altitude
Exits shadow 00:17:57 - 241° (WSW) 3,057 7.2 -24.3°
Reaches altitude 10° 00:19:47 10° 256° (WSW) 2,767 7.1 -24.4°
Maximum altitude 00:21:49 12° 275° (W) 2,649 7.2 -24.5°
Drops below altitude 10° 00:23:51 10° 295° (WNW) 2,768 7.6 -24.5°
Sets 00:28:30 0° 326° (NNW) 3,720 8.9 -24.6°
